TimeCST,TemperatureF,Dew PointF,Humidity,Sea Level PressureIn,VisibilityMPH,Wind Direction,Wind SpeedMPH,Gust SpeedMPH,PrecipitationIn,Events,Conditions,WindDirDegrees,DateUTC
12:53 AM,54.0,36.0,51,30.35,10.0,ESE,12.7,-,N/A,,Clear,120,2013-11-05 06:53:00
1:53 AM,54.0,36.0,51,30.35,10.0,ESE,13.8,19.6,N/A,,Clear,120,2013-11-05 07:53:00
2:53 AM,53.1,36.0,52,30.34,10.0,ESE,13.8,-,N/A,,Clear,120,2013-11-05 08:53:00
3:53 AM,53.1,35.1,50,30.34,10.0,ESE,15.0,-,N/A,,Clear,120,2013-11-05 09:53:00
4:53 AM,52.0,35.1,53,30.35,10.0,ESE,18.4,-,N/A,,Clear,120,2013-11-05 10:53:00
5:53 AM,52.0,35.1,53,30.36,10.0,SE,17.3,20.7,N/A,,Mostly Cloudy,130,2013-11-05 11:53:00
6:53 AM,52.0,35.1,53,30.38,10.0,ESE,13.8,-,N/A,,Mostly Cloudy,120,2013-11-05 12:53:00
7:53 AM,54.0,35.1,49,30.39,10.0,ESE,18.4,25.3,N/A,,Mostly Cloudy,120,2013-11-05 13:53:00
8:53 AM,55.0,35.1,47,30.39,10.0,SE,15.0,-,N/A,,Mostly Cloudy,130,2013-11-05 14:53:00
9:53 AM,57.0,35.1,44,30.40,10.0,ESE,17.3,-,N/A,,Overcast,120,2013-11-05 15:53:00
10:53 AM,57.0,36.0,45,30.39,10.0,ESE,12.7,-,N/A,,Overcast,110,2013-11-05 16:53:00
11:53 AM,59.0,37.0,44,30.36,10.0,ESE,12.7,-,N/A,,Overcast,110,2013-11-05 17:53:00
12:53 PM,63.0,37.9,40,30.32,10.0,SE,11.5,-,N/A,,Mostly Cloudy,130,2013-11-05 18:53:00
1:53 PM,63.0,39.0,41,30.30,10.0,ESE,11.5,-,N/A,,Mostly Cloudy,120,2013-11-05 19:53:00
2:53 PM,64.0,39.9,41,30.28,10.0,SE,9.2,-,N/A,,Mostly Cloudy,130,2013-11-05 20:53:00
3:53 PM,63.0,41.0,45,30.28,10.0,SE,10.4,-,N/A,,Mostly Cloudy,130,2013-11-05 21:53:00
4:53 PM,59.0,41.0,51,30.28,10.0,SE,5.8,-,N/A,,Scattered Clouds,130,2013-11-05 22:53:00
5:53 PM,55.9,42.1,60,30.28,10.0,ESE,5.8,-,N/A,,Scattered Clouds,110,2013-11-05 23:53:00
6:53 PM,55.0,42.1,62,30.28,10.0,ESE,5.8,-,N/A,,Scattered Clouds,110,2013-11-06 00:53:00
7:53 PM,55.0,42.1,62,30.27,10.0,SE,9.2,-,N/A,,Partly Cloudy,130,2013-11-06 01:53:00
8:53 PM,57.9,41.0,53,30.27,10.0,ESE,10.4,-,N/A,,Overcast,120,2013-11-06 02:53:00
9:53 PM,59.0,39.9,49,30.27,10.0,SE,12.7,-,N/A,,Overcast,140,2013-11-06 03:53:00
10:53 PM,59.0,39.0,48,30.26,10.0,SE,12.7,-,N/A,,Mostly Cloudy,140,2013-11-06 04:53:00
11:53 PM,57.0,39.0,51,30.25,10.0,SSE,10.4,-,N/A,,Scattered Clouds,150,2013-11-06 05:53:00